Weather History for Yankton, SD

Change the Weather History Date:

Wednesday, October 16, 2013

  Actual Average Record
Temperature  
Mean Temperature 45 °F -  
Max Temperature 55 °F 61 °F 93 °F (1958)
Min Temperature 35 °F 35 °F 19 °F (1976)
Degree Days  
Heating Degree Days 20    
Moisture  
Dew Point 35 °F    
Average Humidity 70    
Maximum Humidity 93    
Minimum Humidity 41    
Precipitation  
Precipitation 0.00 in - - ()
Sea Level Pressure  
Sea Level Pressure 30.00 in    
Wind  
Wind Speed 10 mph (WNW)    
Max Wind Speed 16 mph    
Max Gust Speed 20 mph    
Visibility 10 miles    
Events      
Averages and records for this station are not official NWS values.
T = Trace of Precipitation, MM = Missing Value Source: NWS Daily Summary

Daily Weather History Graph

Daily Weather History Graph

Search for Another Location

Airport:

Trip Planner

Search our weather history database for the weather conditions in past years. The results will help you decide how hot, cold, wet, or windy it might be!

Date:

Astronomy

Oct. 16, 2013 Rise Set
Actual Time 7:44 AM CDT 6:44 PM CDT
Civil Twilight 7:15 AM CDT 7:13 PM CDT
Nautical Twilight 6:42 AM CDT 7:46 PM CDT
Astronomical Twilight 6:10 AM CDT 8:19 PM CDT
Moon 5:27 PM CDT (10/16) 5:10 AM CDT (10/16)
Length of Visible Light 11h 57m
Length of Day
11h 00m
Waxing Gibbous, 94% of the Moon is Illuminated
Oct 16
Waxing Gibbous
Oct 18
Full
Oct 26
Last Quarter
Nov 3
New
Nov 9
First Quarter

Hourly Weather History & Observations

Time (CDT) Temp. Windchill Dew Point Humidity Pressure Visibility Wind Dir Wind Speed Gust Speed Precip Events Conditions
12:15 AM 42.8 °F 35.4 °F 37.4 °F 81% 30.05 in 10.0 mi WNW 15.0 mph - N/A   Mostly Cloudy
12:35 AM 42.8 °F 35.1 °F 35.6 °F 76% 30.04 in 10.0 mi NW 16.1 mph - N/A   Overcast
12:55 AM 42.8 °F 35.1 °F 37.4 °F 81% 30.04 in 10.0 mi WNW 16.1 mph 19.6 mph N/A   Overcast
1:15 AM 42.8 °F 35.8 °F 37.4 °F 81% 30.04 in 10.0 mi NW 13.8 mph 19.6 mph N/A   Overcast
1:35 AM 42.8 °F 35.8 °F 37.4 °F 81% 30.05 in 10.0 mi WNW 13.8 mph - N/A   Mostly Cloudy
1:55 AM 42.8 °F 35.8 °F 37.4 °F 81% 30.05 in 10.0 mi WNW 13.8 mph - N/A   Mostly Cloudy
2:15 AM 42.8 °F 36.2 °F 37.4 °F 81% 30.04 in 10.0 mi WNW 12.7 mph - N/A   Mostly Cloudy
2:35 AM 42.8 °F 35.1 °F 37.4 °F 81% 30.04 in 10.0 mi NW 16.1 mph - N/A   Overcast
2:55 AM 42.8 °F 36.2 °F 37.4 °F 81% 30.05 in 10.0 mi WNW 12.7 mph - N/A   Overcast
3:15 AM 42.8 °F 35.8 °F 37.4 °F 81% 30.05 in 10.0 mi WNW 13.8 mph 17.3 mph N/A   Overcast
3:35 AM 42.8 °F 36.6 °F 37.4 °F 81% 30.05 in 10.0 mi WNW 11.5 mph - N/A   Overcast
3:55 AM 42.8 °F 35.8 °F 37.4 °F 81% 30.05 in 10.0 mi NW 13.8 mph - N/A   Overcast
4:15 AM 42.8 °F 37.5 °F 37.4 °F 81% 30.05 in 10.0 mi NW 9.2 mph - N/A   Overcast
4:35 AM 42.8 °F 37.5 °F 37.4 °F 81% 30.05 in 10.0 mi WNW 9.2 mph - N/A   Overcast
4:55 AM 41.0 °F 35.2 °F 35.6 °F 81% 30.05 in 10.0 mi WNW 9.2 mph - N/A   Overcast
5:15 AM 41.0 °F 34.3 °F 35.6 °F 81% 30.05 in 10.0 mi NW 11.5 mph - N/A   Overcast
5:35 AM 41.0 °F 34.3 °F 35.6 °F 81% 30.05 in 10.0 mi NW 11.5 mph - N/A   Overcast
5:55 AM 39.2 °F 32.0 °F 35.6 °F 87% 30.05 in 10.0 mi NW 11.5 mph - N/A   Overcast
6:15 AM 39.2 °F 33.6 °F 35.6 °F 87% 30.04 in 10.0 mi NW 8.1 mph - N/A   Overcast
6:35 AM 37.4 °F 31.4 °F 33.8 °F 87% 30.04 in 10.0 mi NW 8.1 mph - N/A   Scattered Clouds
6:55 AM 37.4 °F 31.4 °F 33.8 °F 87% 30.04 in 10.0 mi WNW 8.1 mph - N/A   Clear
7:15 AM 37.4 °F 32.1 °F 33.8 °F 87% 30.04 in 10.0 mi WNW 6.9 mph - N/A   Clear
7:35 AM 35.6 °F 31.7 °F 33.8 °F 93% 30.05 in 10.0 mi WSW 4.6 mph - N/A   Clear
7:55 AM 35.6 °F 30.7 °F 32.0 °F 87% 30.05 in 10.0 mi West 5.8 mph - N/A   Clear
8:15 AM 35.6 °F 30.7 °F 32.0 °F 87% 30.06 in 10.0 mi WNW 5.8 mph - N/A   Clear
8:35 AM 35.6 °F 29.9 °F 33.8 °F 93% 30.06 in 10.0 mi West 6.9 mph - N/A   Clear
8:55 AM 37.4 °F 32.1 °F 35.6 °F 93% 30.07 in 10.0 mi West 6.9 mph - N/A   Clear
9:15 AM 39.2 °F 34.2 °F 35.6 °F 87% 30.07 in 10.0 mi West 6.9 mph - N/A   Clear
9:35 AM 39.2 °F 33.6 °F 35.6 °F 87% 30.07 in 10.0 mi West 8.1 mph - N/A   Clear
9:55 AM 42.8 °F 36.6 °F 35.6 °F 76% 30.06 in 10.0 mi West 11.5 mph - N/A   Clear
10:15 AM 42.8 °F 38.6 °F 35.6 °F 76% 30.06 in 10.0 mi West 6.9 mph - N/A   Clear
10:35 AM 44.6 °F 38.4 °F 37.4 °F 76% 30.06 in 10.0 mi West 12.7 mph - N/A   Clear
10:55 AM 44.6 °F 38.8 °F 37.4 °F 76% 30.05 in 10.0 mi WNW 11.5 mph - N/A   Clear
11:15 AM 46.4 °F 41.5 °F 35.6 °F 66% 30.05 in 10.0 mi WNW 10.4 mph - N/A   Clear
11:35 AM 46.4 °F 41.1 °F 35.6 °F 66% 30.05 in 10.0 mi West 11.5 mph - N/A   Clear
11:55 AM 48.2 °F - 37.4 °F 66% 30.05 in 10.0 mi West 12.7 mph - N/A   Clear
12:15 PM 50.0 °F - 35.6 °F 58% 30.04 in 10.0 mi WNW 12.7 mph - N/A   Clear
12:35 PM 51.8 °F - 37.4 °F 58% 30.04 in 10.0 mi West 11.5 mph - N/A   Partly Cloudy
12:55 PM 51.8 °F - 35.6 °F 54% 30.03 in 10.0 mi WNW 11.5 mph 17.3 mph N/A   Clear
1:15 PM 51.8 °F - 33.8 °F 50% 30.03 in 10.0 mi West 10.4 mph - N/A   Clear
1:35 PM 53.6 °F - 33.8 °F 47% 30.01 in 10.0 mi NW 15.0 mph - N/A   Partly Cloudy
1:55 PM 53.6 °F - 33.8 °F 47% 30.00 in 10.0 mi WNW 11.5 mph - N/A   Partly Cloudy
2:15 PM 53.6 °F - 33.8 °F 47% 29.99 in 10.0 mi WNW 9.2 mph - N/A   Clear
2:35 PM 53.6 °F - 33.8 °F 47% 29.98 in 10.0 mi NNW 10.4 mph - N/A   Clear
2:55 PM 53.6 °F - 33.8 °F 47% 29.98 in 10.0 mi West 11.5 mph 16.1 mph N/A   Clear
3:15 PM 53.6 °F - 33.8 °F 47% 29.97 in 10.0 mi West 10.4 mph 16.1 mph N/A   Clear
3:35 PM 53.6 °F - 33.8 °F 47% 29.96 in 10.0 mi West 10.4 mph - N/A   Clear
3:55 PM 55.4 °F - 33.8 °F 44% 29.96 in 10.0 mi West 11.5 mph - N/A   Clear
4:15 PM 53.6 °F - 33.8 °F 47% 29.95 in 10.0 mi West 9.2 mph - N/A   Clear
4:35 PM 55.4 °F - 32.0 °F 41% 29.95 in 10.0 mi West 10.4 mph - N/A   Clear
4:55 PM 55.4 °F - 32.0 °F 41% 29.95 in 10.0 mi West 6.9 mph - N/A   Clear
5:15 PM 55.4 °F - 33.8 °F 44% 29.94 in 10.0 mi West 10.4 mph - N/A   Clear
5:35 PM 53.6 °F - 33.8 °F 47% 29.94 in 10.0 mi West 6.9 mph - N/A   Clear
5:55 PM 53.6 °F - 33.8 °F 47% 29.94 in 10.0 mi West 6.9 mph - N/A   Clear
6:15 PM 53.6 °F - 33.8 °F 47% 29.93 in 10.0 mi West 5.8 mph - N/A   Clear
6:35 PM 51.8 °F - 32.0 °F 47% 29.93 in 10.0 mi West 4.6 mph - N/A   Clear
6:55 PM 51.8 °F - 32.0 °F 47% 29.93 in 10.0 mi West 4.6 mph - N/A   Clear
7:15 PM 50.0 °F - 32.0 °F 50% 29.93 in 10.0 mi SW 3.5 mph - N/A   Clear
7:35 PM 44.6 °F 43.1 °F 33.8 °F 66% 29.93 in 10.0 mi West 3.5 mph - N/A   Clear
7:55 PM 42.8 °F 41.1 °F 33.8 °F 70% 29.93 in 10.0 mi WSW 3.5 mph - N/A   Clear
8:15 PM 42.8 °F - 33.8 °F 70% 29.92 in 10.0 mi Calm Calm - N/A   Clear
8:35 PM 42.8 °F - 33.8 °F 70% 29.92 in 10.0 mi Calm Calm - N/A   Clear
8:55 PM 42.8 °F - 32.0 °F 66% 29.92 in 10.0 mi Calm Calm - N/A   Clear
9:15 PM 42.8 °F - 32.0 °F 66% 29.92 in 10.0 mi Calm Calm - N/A   Clear
9:35 PM 41.0 °F - 32.0 °F 70% 29.92 in 10.0 mi Calm Calm - N/A   Clear
9:55 PM 41.0 °F - 33.8 °F 76% 29.92 in 10.0 mi Calm Calm - N/A   Clear
10:15 PM 41.0 °F - 33.8 °F 76% 29.92 in 10.0 mi Calm Calm - N/A   Clear
10:35 PM 41.0 °F 39.0 °F 33.8 °F 76% 29.92 in 10.0 mi SW 3.5 mph - N/A   Clear
10:55 PM 39.2 °F - 32.0 °F 75% 29.92 in 10.0 mi Calm Calm - N/A   Clear
11:15 PM 37.4 °F - 33.8 °F 87% 29.92 in 10.0 mi Calm Calm - N/A   Partly Cloudy
11:35 PM 39.2 °F - 33.8 °F 81% 29.92 in 10.0 mi Calm Calm - N/A   Partly Cloudy
11:55 PM 37.4 °F 34.9 °F 33.8 °F 87% 29.91 in 10.0 mi SSE 3.5 mph - N/A   Partly Cloudy